Retour au catalogue

USA 460

ActifMilitaireVLEO
NORAD 62359·PAYLOAD·🇺🇸 United States

Lancé Dec 17, 2024 depuis Vandenberg Space Force Base

Loading…

Prochains Passages (prochaines 24 heures)

TLE

PériméSource: Mike McCants

Époque: Aug 20, 2026, 20:38 UTC

1 62359U 24243V   26232.85980635 0.00000000  00000-0  00000-0 0    02
2 62359  70.0216 134.6473 0004000  64.4936 295.5064 14.96713559    08

Suivez USA 460 en temps réel avec AllMySat

Download on the App Store